Location: Bouchavesnes-Bergen
(49.9859°N, 2.9203°E)
Time: 11:18:26
(UTC+00:00)

Landsat 5 - Pass Details

Date: 09 March 2021
Orbit: 529 x 652 km, 98.2° (Epoch: 12 April)

Event Time Altitude Azimuth Distance (km) Brightness Sun altitude
Rises 04:31:36 0° 181° (S) 2,662 6.7 -17.3°
Reaches altitude 10° 04:33:45 10° 189° (S) 1,783 5.7 -17.0°
Maximum altitude 04:37:24 42° 261° (W) 786 3.6 -16.4°
Drops below altitude 10° 04:41:10 10° 333° (NNW) 1,838 5.8 -15.8°
Sets 04:43:26 0° 341° (NNW) 2,756 6.8 -15.4°
